Find Unisat-6

NORAD ID: 40012 Int'l Des: 2014-033 Owner: GAUSS Country: I operational
LEOCIRCULARRETROGRADESSO

Live Position

Loading 3D Globe...

About Unisat-6

Description loading...

Upcoming Passes

Passes for default location (London). Set your location on the main map for personalized predictions.

Altitude History

Loading altitude history...

Two-Line Element Set

1 40012U 14033C 26105.26072648 .00001531 00000-0 17059-3 0 9992
2 40012 97.7797 259.1245 0043968 275.9218 83.6988 14.87878235636805
Epoch: Apr 15, 2026 • Age: 7 hours

Current Status

Altitude 628.6 km
Velocity 7.54 km/s
Sub-Earth Point 40.86°N, 144.52°W
Launch Date Jun 19, 2014
Age 11.8 years
Type other

Technical Details

Classification Payload
Mass 19.00 kg
Dry Mass 19.00 kg
Total Mass 26.00 kg
Length 0.30 m
Diameter 0.30 m
Span 0.90 m
Shape Box+4 pan
Manufacturer GAUSS
Bus Type Unisat
Phase Status In Orbit
Owner/State GAUSS/I

Most Searched